Погода в Шеломах

Россия / Брянская область     52°34′25″N   31°50′44″E
темп.,
°C
ветер,
м/с
пор.,
м/с
влажн.,
%
обл.,
%
осадки,
мм/ч
давл.,
гПа
погр.,
м
8 мая, сб
сб800:00+10ю51096100 0.3 1006401
03:00+8юз2498100 0.3 1005104
06:00+8з2498100 0.3 1004128
09:00+8зсз3697100 1.4 1005325
12:00+8ссз61093100 1.2 1005672
15:00+5ссз71393100 3.6 10081017
18:00+7сз51078100 2.0 10101103
21:00+5сз51182100 2.6 1013692
9 мая, вс
вс900:00+3з41188100 0.0 1015298
03:00+2зсз413872 0.0 1017333
06:00+1зсз411935 0.0 1019302
09:00+7сз58675 0.0 1021842
12:00+10сз57455 0.0 10221916
15:00+12сз574064 0.0 10232396
18:00+11ссз46495 0.0 10242153
21:00+6ссз12666 0.0 102610
10 мая, пн
пн1000:00+4вюв116664 0.0 102810
03:00+3ю11675 0.0 102910
06:00+4ююв22690 0.0 103011
09:00+10ююв23515 0.0 1030423
12:00+14ююв22390 0.0 10301357
15:00+16ююв22360 0.0 10291559
18:00+16вюв11421 0.0 10281424
21:00+9в22620 0.0 102913
11 мая, вт
вт1100:00+7вюв22700 0.0 102910
03:00+6в22730 0.0 102928
06:00+6всв34780 0.0 102964
09:00+12всв48570 0.0 1028578
12:00+16всв68460 0.0 10261051
15:00+18всв57440 0.0 10241209
18:00+17в48585 0.0 10241046
21:00+13вюв4107974 0.0 1024476
12 мая, ср
ср1200:00+11в37882 0.0 1023220
03:00+8в23955 0.0 102345
06:00+9всв1389100 0.0 1021102
09:00+9юв2396100 0.8 1020247
12:00+10вюв369098 0.1 1020385
15:00+16вюв695698 0.4 10181880
18:00+14вюв5872100 0.6 10181201
21:00+10вюв41290100 1.3 1018825